格洛纳斯-788 COSMOS 2376 [GLONASS]

导读 | 星芒AI

COSMOS 2376 是一颗俄罗斯 GLONASS 卫星,于 2001 年 12 月 12 日由质子-K 火箭发射。该卫星属于 GLONASS-M 系列,旨在提供全球导航和定位服务。它运行在中地球轨道,设计寿命为 7 年。COSMOS 2376 在提升俄罗斯全球卫星导航系统精度和可靠性方面发挥了重要作用。

基本信息
目录编号:
26565
目录名称:
COSMOS 2376 (GLONASS)
国际标识:
2000-063B
轨道中心:
EARTH
卫星名称:
格洛纳斯-788
卫星全名:
格洛纳斯-788 COSMOS 2376 [GLONASS]
卫星状态:
在轨 (已飞行9150 天)
发射日期:
2000-10-13 UTC
国别 :
俄罗斯(独联体) (CIS)
星等 :
--
轨道信息
数据来源 国际轨道数据
星历时间: 2025-10-31T13:24:22+0800
1天前
查看轨道信息
半长轴: 25507.985km
偏心率: 0.0003945
轨道倾角: 65.337°
近地点辐角 3.310°
升交点赤经 321.661°
平近点角 4.028°
近地点: 19119.787km
远地点: 19139.913km
周期: 675.731分钟
每日圈数: 2.131025
详细信息
平衡模式:
三轴稳定
覆盖范围:
全球
运营商:
列舍特涅夫卫星信息系统
运营商所在国:
俄罗斯
制造商(研发单位):
列舍特涅夫卫星信息系统
制造商所在国:
俄罗斯
使用方式:
暂无
卫星简介
格洛纳斯(GLONASS )是苏联/俄罗斯研制卫星导航系统。标准配置为24颗卫星,其中18颗卫星就能保证该系统为俄罗斯境内用户提供全部服务。该卫星已退役。
2D轨道图
3D轨道图
轨道高度分析图
轨道倾角分析图
轨道综合分析图
查看轨道综合分析图